Zurück zum Katalog

ZHIXING-2A

AktivWissenschaftSSO
NORAD 58922·PAYLOAD·🇨🇳 China

Gestartet Feb 3, 2024 von South China Sea Launch Area

Loading…

Nächste Überflüge (nächste 24 Stunden)

TLE

AktuellSource: Space-Track

Epoche: Sep 14, 2026, 12:00 UTC

1 58922U 24024F   26257.50065542  .00006660  00000-0  28190-3 0  9998
2 58922  97.2941 319.5623 0013505  88.7540 271.5244 15.23423813144854

Verfolge ZHIXING-2A in Echtzeit mit AllMySat

Download on the App Store